Showing default

HYPSO-2, 60531

Orbit data source: Space-Track

HYPSO-2, 60531 is a payload satellite owned by NTNU (NO) in SSO that was launched on Fri, 16 Aug 2024 UTC via an FALCON 9 launch vehicle from the Air Force Western Test Range (AFWTR). Payload-class satellites include a variety of spacecraft equipped with specific instruments for various scientific and technological missions. These include communications satellites like Starlink; space stations such as the ISS; scientific satellites like the Hubble; Earth observation satellites from companies like Planet Labs, Umbra, and HawkEye 360; GPS; miniature CubeSats for education and research; and military/defense satellites.

Loading next visibility...
Identifier
60531, 2024-149BR
Orbit
SSO
Country
Flag of NONO / NOR
Related business
Manufacturer
NanoAvionics
Mission
Operational Civil Imaging
Bus & Motor
CUBESAT 6U, Unknown motor
Mass
~10 kg wet, ~10 kg dry
Launch date (UTC)
2024-08-16 (1 year ago)
Launch vehicle
FALCON 9
Launch site
Air Force Western Test Range (AFWTR)
Object type
Payload
Rocket body
Debris
Shape & HBR
Box + 2 Pan, 0.1 m
Radar Cross Section
0.080 m², Medium (>0.1 m² and < 1m²)

Expand to show TLE details & history
Last TLE update: 19 hours ago

TLE from 19 hours ago
0 HYPSO-2
1 60531U 24149BR  25353.14623473  .00003067  00000-0  26795-3 0  9991
2 60531  97.7009  67.0254 0001216 139.9835 220.1477 14.97521066 73094
Epoch: 2025-12-19T03:30Z
TLE epoch observation values (Epoch: 2025-12-19T03:30:34.680Z)
Latitude
-0.00002°
Longitude
-73.61068°
Altitude
578.256 km
Speed
7.571 km/s
True Right ascension
04h 28m 06s
True Declination
0° 00' 00"
Sunlit
Object was in full shadow at epoch
Visualization orbit readout
Latitude
Unknown
Longitude
Unknown
Altitude
Unknown
Speed
Unknown
Apparent Right ascension
Unknown
Apparent Declination
Unknown
Sunlit
N/A
Visualization observer readout
Local Sidereal Time
21:28:27
Azimuth
Unknown
Elevation
Unknown
Doppler factor
Unknown
Orbital elements
Apogee altitude
572.412 km
Perigee altitude
570.722 km
Semi-major axis
6,949.704 km
Eccentricity
0.00012
Inclination
97.7009°
RAAN
67.0254°
Arg. of periapsis
139.9835°
True anomaly
220.13872°
Mean anomaly
220.1477°
Eccentric anomaly
220.14321°
Mean motion
3.74622 °/min
Orbital period
96.1 mins
BSTAR
0.00026795
Loading maneuver chart data...
Computing Atmospheric mass density...
Loading historical data...
Loading historical data...
Loading historical data...
Loading historical data...
Loading historical data...
Loading historical data...
Loading historical data...

Documentation

Showing up to 5 results
|